VINASAT-2

Last updated on Thu Sep 24 2026 00:03:17 GMT+0000 (Coordinated Universal Time)

1 38332U 12023B 26266.53415906 -.00000330 00000+0 00000+0 0 9997 2 38332 0.0375 310.5586 0002072 225.0951 150.8961 1.00271139 47644
UTC large
Height (km)
Speed (km/s)
/
Latitude / Longitude
Inclination (degrees)
Orbital Period (minutes)
Azimuth
Elevation
Range (km)
Doppler Factor

Next 0 passes for location: London (51.5072 / 0.1276)

No passes found over London.
VINASAT-2